012  
ASUS46 KEKA 202013  
RWREKA  
EUREKA AREA WEATHER ROUNDUP  
NATIONAL WEATHER SERVICE EUREKA CA  
100 PM PDT MON AUG 20 2018  
 
NOTE: "FAIR" INDICATES FEW OR NO CLOUDS BELOW 12,000 FEET WITH NO  
SIGNIFICANT WEATHER AND/OR S TO VISIBILITY
.  
 
SOUTHWEST OREGON...  
 
CITY SKY/WX TMP DP RH WIND PRES REMARKS
 
MEDFORD SUNNY 83 48 29 CALM 29.95F SMOKE  
KLAMATH FALLS MOSUNNY 80 43 26 W7 30.07F HAZE  
NORTH BEND SUNNY 65 56 72 NW13 30.01F  
ROSEBURG SUNNY 76 54 46 CALM 29.97F  
SEXTON SUMMIT SUNNY 76 52 43 CALM 30.08F  
BROOKINGS CLOUDY 56 53 90 SE5 29.95S FOG  
 
NORTHWEST CALIFORNIA...  
 
CITY SKY/WX TMP DP RH WIND PRES REMARKS
 
CRESCENT CITY CLOUDY 56 54 93 SW6 29.95F  
MCKINLEYVILLE CLOUDY 57 54 89 W5 29.94F FOG  
EUREKA CLOUDY 61 32 33 SW7 29.94F  
FORTUNA N/A 63 54 72 NW8 29.95F  
WEAVERVILLE N/A 90 39 17 SW7 29.94F  
TRINITY CENTER NOT AVBL  
UKIAH SUNNY 88 45 22 CALM 29.84F HAZE  
 
NORTH & CENTRAL CALIFORNIA...  
 
CITY SKY/WX TMP DP RH WIND PRES REMARKS
 
YREKA SUNNY 85 34 16 VRB3 30.00F  
MOUNT SHASTA SUNNY 83 36 18 VRB3 30.02F  
REDDING SUNNY 94 45 18 SE6 29.81F SMOKE HX 90  
RED BLUFF SUNNY 91 47 21 VRB3 29.83F  
CHICO NOT AVBL  
YUBA CITY SUNNY 88 51 28 CALM 29.83F  
SACRAMENTO SUNNY 81 54 39 SW10 29.85F  
SANTA ROSA SUNNY 69 55 60 VRB5 29.88F  
NAPA MOSUNNY 65 55 70 S15 29.91F  
SAN FRANCISCO MOSUNNY 68 53 58 W9 29.91F  
OAKLAND MOSUNNY 64 54 69 W9 29.93F  
SALINAS MOSUNNY 65 54 67 NW13 29.96S  
MONTEREY CLOUDY 63 54 72 SW8 29.98S  
 

 
 
 
CLICK HERE TO GO TO PREVIOUS BULLETINS.

The Nexlab CA Page Main Text Page